Find Otter

NORAD ID: 62623 Int'l Des: 2025-009 Owner: USNPS Country: US operational
LEOCIRCULARRETROGRADESSO

リアルタイム位置

3D地球を読み込み中...

Otterについて

説明を読み込み中...

次回通過

Passes for default location (London). Set your location on the main map for personalized predictions.

高度履歴

Loading altitude history...

軌道要素

1 62623U 25009Q 26107.15681889 .00006648 00000-0 24081-3 0 9999
2 62623 97.4039 189.5912 0005626 153.1914 206.9618 15.28704680 69593
Epoch: Apr 17, 2026 • Age: 13 hours

現在のステータス

高度 490.2 km
速度 7.63 km/s
衛星直下点 61.67°N, 81.38°E
打ち上げ日 Jan 14, 2025
運用期間 1.2 years
タイプ other

技術仕様

分類 Payload
質量 10.00 kg
乾燥質量 10.00 kg
総質量 10.00 kg
長さ 0.30 m
直径 0.20 m
スパン 0.30 m
形状 Box+2 pan
製造者 USNPS
バスタイプ Cubesat 6U
フェーズステータス In Orbit
所有者/国 USNPS/US

Most Searched